| time (UTC) | temp F | wind direction | speed MPH | gust MPH | rain 1hr in | rain 24hr in | rain mn in | humidity % | barometer mb |
| 20260503222220 | 64 | 355 | 1.0 | 3.0 | 0.00 | 0.00 | 0.00 | 37 | 1017.2 |
| 20260503222020 | 65 | 279 | 1.0 | 3.0 | 0.00 | 0.00 | 0.00 | 42 | 1017.2 |
| 20260503221820 | 65 | 329 | 1.0 | 3.0 | 0.00 | 0.00 | 0.00 | 43 | 1017.2 |
| 20260503221622 | 65 | 328 | 1.0 | 3.0 | 0.00 | 0.00 | 0.00 | 40 | 1017.2 |
| 20260503221422 | 65 | 328 | 1.0 | 3.0 | 0.00 | 0.00 | 0.00 | 36 | 1017.2 |
| 20260503221219 | 65 | 315 | 1.0 | 3.0 | 0.00 | 0.00 | 0.00 | 37 | 1017.2 |
| 20260503221018 | 65 | 293 | 1.0 | 2.0 | 0.00 | 0.00 | 0.00 | 40 | 1017.1 |
| 20260503220618 | 65 | 212 | 1.0 | 2.0 | 0.00 | 0.00 | 0.00 | 36 | 1017.1 |
| 20260503220215 | 65 | 211 | 1.0 | 2.0 | 0.00 | 0.00 | 0.00 | 40 | 1017.1 |
| 20260503220014 | 65 | 306 | 2.0 | 5.0 | 0.00 | 0.00 | 0.00 | 41 | 1017.1 |
| 20260503215609 | 65 | 271 | 1.0 | 5.0 | 0.00 | 0.00 | 0.00 | 37 | 1017.2 |
| 20260503215406 | 65 | 337 | 1.0 | 5.0 | 0.00 | 0.00 | 0.00 | 40 | 1017.2 |
| 20260503215203 | 65 | 331 | 1.0 | 5.0 | 0.00 | 0.00 | 0.00 | 38 | 1017.1 |
| 20260503215003 | 65 | 70 | 1.0 | 3.0 | 0.00 | 0.00 | 0.00 | 37 | 1017.1 |
| 20260503214802 | 65 | 5 | 1.0 | 3.0 | 0.00 | 0.00 | 0.00 | 39 | 1017.1 |
| 20260503214602 | 65 | 5 | 1.0 | 3.0 | 0.00 | 0.00 | 0.00 | 41 | 1017.1 |
| 20260503214400 | 65 | 5 | 1.0 | 5.0 | 0.00 | 0.00 | 0.00 | 40 | 1017.1 |
| 20260503213958 | 65 | 0 | 1.0 | 5.0 | 0.00 | 0.00 | 0.00 | 36 | 1017.2 |
| 20260503213757 | 65 | 0 | 1.0 | 5.0 | 0.00 | 0.00 | 0.00 | 37 | 1017.2 |
| 20260503213556 | 65 | 0 | 2.0 | 5.0 | 0.00 | 0.00 | 0.00 | 37 | 1017.2 |
| 20260503213352 | 65 | 74 | 1.0 | 5.0 | 0.00 | 0.00 | 0.00 | 36 | 1017.3 |
| 20260503212952 | 65 | 178 | 1.0 | 5.0 | 0.00 | 0.00 | 0.00 | 39 | 1017.4 |
| 20260503212754 | 65 | 165 | 1.0 | 4.0 | 0.00 | 0.00 | 0.00 | 39 | 1017.3 |
| 20260503212553 | 65 | 165 | 1.0 | 4.0 | 0.00 | 0.00 | 0.00 | 36 | 1017.2 |
| 20260503212352 | 65 | 165 | 1.0 | 4.0 | 0.00 | 0.00 | 0.00 | 36 | 1017.2 |
| 20260503212152 | 65 | 333 | 1.0 | 4.0 | 0.00 | 0.00 | 0.00 | 39 | 1017.3 |
| 20260503211952 | 65 | 175 | 1.0 | 3.0 | 0.00 | 0.00 | 0.00 | 36 | 1017.3 |
| 20260503211753 | 65 | 175 | 1.0 | 3.0 | 0.00 | 0.00 | 0.00 | 35 | 1017.3 |
| 20260503211552 | 65 | 175 | 1.0 | 3.0 | 0.00 | 0.00 | 0.00 | 35 | 1017.3 |
| 20260503211151 | 65 | 174 | 1.0 | 4.0 | 0.00 | 0.00 | 0.00 | 36 | 1017.3 |
| 20260503210952 | 65 | 174 | 1.0 | 4.0 | 0.00 | 0.00 | 0.00 | 36 | 1017.4 |
| 20260503210751 | 65 | 175 | 1.0 | 4.0 | 0.00 | 0.00 | 0.00 | 36 | 1017.4 |
| 20260503210550 | 65 | 277 | 1.0 | 4.0 | 0.00 | 0.00 | 0.00 | 36 | 1017.4 |
| 20260503210147 | 65 | 179 | 1.0 | 3.0 | 0.00 | 0.00 | 0.00 | 36 | 1017.4 |
| 20260503205947 | 65 | 349 | 1.0 | 3.0 | 0.00 | 0.00 | 0.00 | 37 | 1017.4 |
| 20260503205748 | 65 | 123 | 1.0 | 3.0 | 0.00 | 0.00 | 0.00 | 36 | 1017.4 |
| 20260503205546 | 65 | 125 | 1.0 | 3.0 | 0.00 | 0.00 | 0.00 | 35 | 1017.3 |
| 20260503205345 | 65 | 327 | 1.0 | 5.0 | 0.00 | 0.00 | 0.00 | 37 | 1017.3 |
| 20260503204744 | 65 | 126 | 2.0 | 5.0 | 0.00 | 0.00 | 0.00 | 37 | 1017.4 |
| 20260503204544 | 65 | 13 | 2.0 | 5.0 | 0.00 | 0.00 | 0.00 | 38 | 1017.6 |
| 20260503204344 | 65 | 11 | 2.0 | 5.0 | 0.00 | 0.00 | 0.00 | 37 | 1017.5 |
| 20260503204142 | 65 | 355 | 1.0 | 4.0 | 0.00 | 0.00 | 0.00 | 38 | 1017.5 |
| 20260503203944 | 64 | 65 | 1.0 | 8.0 | 0.00 | 0.00 | 0.00 | 38 | 1017.6 |
| 20260503203544 | 64 | 276 | 1.0 | 8.0 | 0.00 | 0.00 | 0.00 | 39 | 1017.7 |
| 20260503203340 | 64 | 277 | 1.0 | 8.0 | 0.00 | 0.00 | 0.00 | 37 | 1017.7 |
| 20260503202942 | 64 | 127 | 1.0 | 3.0 | 0.00 | 0.00 | 0.00 | 37 | 1017.6 |
| 20260503202740 | 64 | 292 | 1.0 | 3.0 | 0.00 | 0.00 | 0.00 | 38 | 1017.6 |
| 20260503202540 | 64 | 290 | 1.0 | 3.0 | 0.00 | 0.00 | 0.00 | 38 | 1017.6 |
| 20260503202341 | 64 | 44 | 1.0 | 3.0 | 0.00 | 0.00 | 0.00 | 39 | 1017.6 |
| 20260503202139 | 64 | 44 | 1.0 | 3.0 | 0.00 | 0.00 | 0.00 | 38 | 1017.7 |
| 20260503201939 | 64 | 44 | 1.0 | 4.0 | 0.00 | 0.00 | 0.00 | 38 | 1017.7 |
| 20260503201737 | 64 | 44 | 2.0 | 4.0 | 0.00 | 0.00 | 0.00 | 38 | 1017.8 |
| 20260503201333 | 64 | 38 | 2.0 | 5.0 | 0.00 | 0.00 | 0.00 | 40 | 1017.9 |
| 20260503201132 | 64 | 123 | 2.0 | 5.0 | 0.00 | 0.00 | 0.00 | 38 | 1017.9 |
| 20260503200932 | 64 | 42 | 2.0 | 5.0 | 0.00 | 0.00 | 0.00 | 39 | 1017.9 |
| 20260503200732 | 64 | 150 | 2.0 | 5.0 | 0.00 | 0.00 | 0.00 | 40 | 1017.9 |
| 20260503200531 | 64 | 355 | 1.0 | 5.0 | 0.00 | 0.00 | 0.00 | 38 | 1017.9 |
| 20260503200329 | 64 | 117 | 2.0 | 5.0 | 0.00 | 0.00 | 0.00 | 38 | 1017.9 |
| 20260503200130 | 64 | 155 | 2.0 | 5.0 | 0.00 | 0.00 | 0.00 | 39 | 1018.0 |
| 20260503195932 | 64 | 190 | 2.0 | 5.0 | 0.00 | 0.00 | 0.00 | 39 | 1018.0 |
| 20260503195728 | 64 | 192 | 2.0 | 5.0 | 0.00 | 0.00 | 0.00 | 38 | 1018.0 |
| 20260503195529 | 64 | 5 | 2.0 | 5.0 | 0.00 | 0.00 | 0.00 | 38 | 1018.1 |
| 20260503195329 | 64 | 331 | 2.0 | 5.0 | 0.00 | 0.00 | 0.00 | 40 | 1018.0 |
| 20260503195130 | 63 | 66 | 2.0 | 5.0 | 0.00 | 0.00 | 0.00 | 39 | 1018.0 |
| 20260503194929 | 63 | 0 | 2.0 | 6.0 | 0.00 | 0.00 | 0.00 | 38 | 1018.0 |
| 20260503194729 | 63 | 348 | 2.0 | 6.0 | 0.00 | 0.00 | 0.00 | 37 | 1018.0 |
| 20260503194526 | 63 | 342 | 2.0 | 6.0 | 0.00 | 0.00 | 0.00 | 37 | 1018.2 |
| 20260503194128 | 63 | 25 | 2.0 | 6.0 | 0.00 | 0.00 | 0.00 | 38 | 1018.2 |
| 20260503193525 | 63 | 28 | 1.0 | 3.0 | 0.00 | 0.00 | 0.00 | 38 | 1018.2 |
| 20260503193326 | 63 | 44 | 1.0 | 3.0 | 0.00 | 0.00 | 0.00 | 38 | 1018.3 |
| 20260503193126 | 63 | 86 | 1.0 | 3.0 | 0.00 | 0.00 | 0.00 | 39 | 1018.3 |
| 20260503192925 | 63 | 317 | 2.0 | 4.0 | 0.00 | 0.00 | 0.00 | 40 | 1018.4 |
| 20260503192524 | 63 | 239 | 2.0 | 5.0 | 0.00 | 0.00 | 0.00 | 39 | 1018.4 |
| 20260503192324 | 63 | 84 | 2.0 | 5.0 | 0.00 | 0.00 | 0.00 | 39 | 1018.4 |
| 20260503192124 | 63 | 163 | 2.0 | 5.0 | 0.00 | 0.00 | 0.00 | 39 | 1018.4 |
| 20260503191922 | 63 | 68 | 2.0 | 5.0 | 0.00 | 0.00 | 0.00 | 39 | 1018.4 |
| 20260503191519 | 63 | 264 | 1.0 | 3.0 | 0.00 | 0.00 | 0.00 | 39 | 1018.4 |
| 20260503191122 | 62 | 247 | 1.0 | 3.0 | 0.00 | 0.00 | 0.00 | 38 | 1018.5 |
| 20260503190921 | 62 | 153 | 2.0 | 8.0 | 0.00 | 0.00 | 0.00 | 39 | 1018.6 |
| 20260503190320 | 62 | 5 | 1.0 | 8.0 | 0.00 | 0.00 | 0.00 | 39 | 1018.7 |
| 20260503190118 | 62 | 5 | 1.0 | 8.0 | 0.00 | 0.00 | 0.00 | 39 | 1018.7 |
| 20260503185920 | 62 | 355 | 1.0 | 7.0 | 0.00 | 0.00 | 0.00 | 39 | 1018.7 |
| 20260503185718 | 62 | 240 | 1.0 | 5.0 | 0.00 | 0.00 | 0.00 | 39 | 1018.8 |
| 20260503185519 | 62 | 147 | 1.0 | 5.0 | 0.00 | 0.00 | 0.00 | 40 | 1018.8 |
| 20260503185316 | 62 | 148 | 2.0 | 5.0 | 0.00 | 0.00 | 0.00 | 39 | 1018.7 |
| 20260503185116 | 62 | 149 | 2.0 | 5.0 | 0.00 | 0.00 | 0.00 | 38 | 1018.8 |
| 20260503184914 | 62 | 150 | 2.0 | 6.0 | 0.00 | 0.00 | 0.00 | 38 | 1018.8 |
| 20260503184713 | 62 | 40 | 2.0 | 6.0 | 0.00 | 0.00 | 0.00 | 38 | 1018.8 |
| 20260503184513 | 62 | 334 | 2.0 | 6.0 | 0.00 | 0.00 | 0.00 | 39 | 1018.9 |
| 20260503184312 | 62 | 31 | 2.0 | 6.0 | 0.00 | 0.00 | 0.00 | 38 | 1018.9 |
| 20260503183910 | 61 | 5 | 3.0 | 7.0 | 0.00 | 0.00 | 0.00 | 38 | 1019.0 |
| 20260503183710 | 61 | 76 | 2.0 | 7.0 | 0.00 | 0.00 | 0.00 | 38 | 1019.0 |
| 20260503183511 | 61 | 142 | 3.0 | 8.0 | 0.00 | 0.00 | 0.00 | 37 | 1019.0 |
| 20260503183310 | 61 | 207 | 3.0 | 8.0 | 0.00 | 0.00 | 0.00 | 38 | 1019.0 |
| 20260503183110 | 61 | 15 | 3.0 | 8.0 | 0.00 | 0.00 | 0.00 | 38 | 1019.1 |
| 20260503182908 | 61 | 206 | 3.0 | 8.0 | 0.00 | 0.00 | 0.00 | 39 | 1019.0 |
| 20260503182507 | 61 | 108 | 3.0 | 7.0 | 0.00 | 0.00 | 0.00 | 39 | 1019.1 |
| 20260503182307 | 61 | 272 | 2.0 | 7.0 | 0.00 | 0.00 | 0.00 | 39 | 1019.2 |
| 20260503181907 | 61 | 188 | 3.0 | 7.0 | 0.00 | 0.00 | 0.00 | 39 | 1019.2 |
| 20260503181706 | 61 | 112 | 3.0 | 10.0 | 0.00 | 0.00 | 0.00 | 40 | 1019.2 |
| 20260503181506 | 61 | 61 | 3.0 | 10.0 | 0.00 | 0.00 | 0.00 | 39 | 1019.2 |
| 20260503181104 | 61 | 197 | 3.0 | 10.0 | 0.00 | 0.00 | 0.00 | 39 | 1019.3 |
| 20260503180903 | 61 | 355 | 3.0 | 10.0 | 0.00 | 0.00 | 0.00 | 39 | 1019.3 |
| 20260503180703 | 61 | 130 | 2.0 | 5.0 | 0.00 | 0.00 | 0.00 | 41 | 1019.2 |
| 20260503180502 | 61 | 52 | 2.0 | 9.0 | 0.00 | 0.00 | 0.00 | 40 | 1019.2 |
| 20260503180302 | 61 | 5 | 2.0 | 9.0 | 0.00 | 0.00 | 0.00 | 41 | 1019.3 |
| 20260503180103 | 61 | 348 | 2.0 | 9.0 | 0.00 | 0.00 | 0.00 | 41 | 1019.3 |
| 20260503175902 | 61 | 130 | 2.0 | 9.0 | 0.00 | 0.00 | 0.00 | 40 | 1019.3 |
| 20260503175700 | 61 | 145 | 2.0 | 9.0 | 0.00 | 0.00 | 0.00 | 39 | 1019.3 |
| 20260503175500 | 61 | 294 | 3.0 | 5.0 | 0.00 | 0.00 | 0.00 | 40 | 1019.3 |
| 20260503175301 | 61 | 329 | 3.0 | 10.0 | 0.00 | 0.00 | 0.00 | 38 | 1019.3 |
| 20260503175058 | 61 | 182 | 3.0 | 10.0 | 0.00 | 0.00 | 0.00 | 40 | 1019.3 |
| 20260503174857 | 61 | 74 | 2.0 | 10.0 | 0.00 | 0.00 | 0.00 | 40 | 1019.3 |
| 20260503174456 | 61 | 24 | 2.0 | 10.0 | 0.00 | 0.00 | 0.00 | 41 | 1019.5 |
| 20260503174256 | 60 | 347 | 2.0 | 6.0 | 0.00 | 0.00 | 0.00 | 40 | 1019.5 |
| 20260503174056 | 60 | 329 | 2.0 | 7.0 | 0.00 | 0.00 | 0.00 | 41 | 1019.5 |
| 20260503173856 | 60 | 170 | 2.0 | 7.0 | 0.00 | 0.00 | 0.00 | 41 | 1019.4 |
| 20260503173657 | 60 | 88 | 2.0 | 7.0 | 0.00 | 0.00 | 0.00 | 41 | 1019.5 |
| 20260503173457 | 60 | 348 | 2.0 | 7.0 | 0.00 | 0.00 | 0.00 | 41 | 1019.5 |
| 20260503173255 | 60 | 84 | 2.0 | 7.0 | 0.00 | 0.00 | 0.00 | 41 | 1019.5 |
| 20260503173056 | 60 | 167 | 2.0 | 6.0 | 0.00 | 0.00 | 0.00 | 41 | 1019.6 |
| 20260503172857 | 60 | 350 | 2.0 | 6.0 | 0.00 | 0.00 | 0.00 | 40 | 1019.6 |
| 20260503172454 | 60 | 338 | 2.0 | 6.0 | 0.00 | 0.00 | 0.00 | 41 | 1019.7 |
| 20260503172252 | 60 | 328 | 2.0 | 6.0 | 0.00 | 0.00 | 0.00 | 41 | 1019.7 |
| 20260503172050 | 60 | 246 | 2.0 | 5.0 | 0.00 | 0.00 | 0.00 | 40 | 1019.8 |
| 20260503171850 | 60 | 344 | 3.0 | 6.0 | 0.00 | 0.00 | 0.00 | 40 | 1019.8 |
| 20260503171246 | 60 | 24 | 2.0 | 7.0 | 0.00 | 0.00 | 0.00 | 41 | 1019.9 |
| 20260503170847 | 59 | 262 | 2.0 | 7.0 | 0.00 | 0.00 | 0.00 | 42 | 1019.9 |
| 20260503170646 | 59 | 34 | 2.0 | 4.0 | 0.00 | 0.00 | 0.00 | 42 | 1019.9 |
| 20260503150819 | 57 | 22 | 2.0 | 8.0 | 0.00 | 0.00 | 0.00 | 46 | 1020.9 |
| 20260503150418 | 57 | 345 | 2.0 | 8.0 | 0.00 | 0.00 | 0.00 | 46 | 1021.0 |
| 20260503150217 | 57 | 32 | 2.0 | 8.0 | 0.00 | 0.00 | 0.00 | 46 | 1021.0 |
| 20260503140201 | 57 | 56 | 3.0 | 11.0 | 0.00 | 0.00 | 0.00 | 48 | 1020.6 |
| 20260503131155 | 51 | 0 | 3.0 | 8.0 | 0.00 | 0.00 | 0.00 | 65 | 1020.6 |
| 20260503130957 | 50 | 5 | 3.0 | 8.0 | 0.00 | 0.00 | 0.00 | 67 | 1020.6 |
| 20260503130754 | 50 | 348 | 3.0 | 8.0 | 0.00 | 0.00 | 0.00 | 67 | 1020.6 |
| 20260503130554 | 50 | 155 | 3.0 | 8.0 | 0.00 | 0.00 | 0.00 | 67 | 1020.5 |
| 20260503130355 | 49 | 0 | 2.0 | 8.0 | 0.00 | 0.00 | 0.00 | 69 | 1020.6 |
| 20260503120141 | 40 | 22 | 0.0 | 2.0 | 0.00 | 0.00 | 0.00 | 93 | 1020.3 |
| 20260503110327 | 37 | 107 | 0.0 | 0.0 | 0.00 | 0.00 | 0.00 | 91 | 1019.5 |
| 20260503100126 | 38 | 107 | 0.0 | 0.0 | 0.00 | 0.00 | 0.00 | 91 | 1018.5 |
| 20260503090319 | 39 | 107 | 0.0 | 0.0 | 0.00 | 0.00 | 0.00 | 91 | 1017.9 |
| 20260503090118 | 39 | 107 | 0.0 | 0.0 | 0.00 | 0.00 | 0.00 | 91 | 1017.9 |
| 20260503081456 | 39 | 107 | 0.0 | 0.0 | 0.00 | 0.00 | 0.00 | 91 | 1017.4 |
| 20260503081255 | 39 | 107 | 0.0 | 0.0 | 0.00 | 0.00 | 0.00 | 91 | 1017.4 |
| 20260503080850 | 39 | 107 | 0.0 | 0.0 | 0.00 | 0.00 | 0.00 | 91 | 1017.4 |
| 20260503080651 | 39 | 107 | 0.0 | 0.0 | 0.00 | 0.00 | 0.00 | 91 | 1017.4 |
| 20260503080447 | 39 | 107 | 0.0 | 0.0 | 0.00 | 0.00 | 0.00 | 91 | 1017.4 |
| 20260503080248 | 39 | 107 | 0.0 | 0.0 | 0.00 | 0.00 | 0.00 | 91 | 1017.2 |
| 20260503072828 | 40 | 107 | 0.0 | 0.0 | 0.00 | 0.00 | 0.00 | 91 | 1016.9 |
| 20260503072629 | 40 | 107 | 0.0 | 0.0 | 0.00 | 0.00 | 0.00 | 91 | 1016.9 |
| 20260503072428 | 40 | 107 | 0.0 | 0.0 | 0.00 | 0.00 | 0.00 | 91 | 1016.8 |
| 20260503072226 | 40 | 107 | 0.0 | 0.0 | 0.00 | 0.00 | 0.00 | 91 | 1016.8 |
| 20260503072025 | 40 | 107 | 0.0 | 0.0 | 0.00 | 0.00 | 0.00 | 91 | 1016.8 |
| 20260503071826 | 40 | 107 | 0.0 | 0.0 | 0.00 | 0.00 | 0.00 | 91 | 1016.8 |
| 20260503071625 | 40 | 107 | 0.0 | 0.0 | 0.00 | 0.00 | 0.00 | 91 | 1016.7 |
| 20260503071425 | 40 | 107 | 0.0 | 0.0 | 0.00 | 0.00 | 0.00 | 91 | 1016.7 |
| 20260503071227 | 40 | 107 | 0.0 | 0.0 | 0.00 | 0.00 | 0.00 | 91 | 1016.7 |
| 20260503070822 | 40 | 107 | 0.0 | 0.0 | 0.00 | 0.00 | 0.00 | 91 | 1016.7 |
| 20260503070621 | 40 | 107 | 0.0 | 0.0 | 0.00 | 0.00 | 0.00 | 91 | 1016.7 |
| 20260503070421 | 40 | 107 | 0.0 | 0.0 | 0.00 | 0.00 | 0.00 | 91 | 1016.6 |
| 20260503070222 | 40 | 107 | 0.0 | 0.0 | 0.00 | 0.00 | 0.00 | 91 | 1016.6 |
| 20260503060136 | 41 | 107 | 0.0 | 0.0 | 0.00 | 0.00 | 0.00 | 91 | 1016.3 |
| 20260503055129 | 41 | 107 | 0.0 | 0.0 | 0.00 | 0.00 | 0.00 | 91 | 1016.3 |
| 20260503054925 | 41 | 107 | 0.0 | 0.0 | 0.00 | 0.00 | 0.00 | 91 | 1016.3 |
| 20260503054723 | 41 | 107 | 0.0 | 0.0 | 0.00 | 0.00 | 0.00 | 91 | 1016.4 |
| 20260503054521 | 42 | 107 | 0.0 | 0.0 | 0.00 | 0.00 | 0.00 | 91 | 1016.4 |
| 20260503054321 | 42 | 107 | 0.0 | 0.0 | 0.00 | 0.00 | 0.00 | 91 | 1016.4 |
| 20260503053715 | 42 | 107 | 0.0 | 0.0 | 0.00 | 0.00 | 0.00 | 90 | 1016.3 |
| 20260503053515 | 42 | 107 | 0.0 | 0.0 | 0.00 | 0.00 | 0.00 | 90 | 1016.4 |
| 20260503053317 | 42 | 107 | 0.0 | 0.0 | 0.00 | 0.00 | 0.00 | 90 | 1016.4 |
| 20260503053117 | 42 | 107 | 0.0 | 0.0 | 0.00 | 0.00 | 0.00 | 90 | 1016.4 |
| 20260503052914 | 42 | 107 | 0.0 | 0.0 | 0.00 | 0.00 | 0.00 | 90 | 1016.4 |
| 20260503052514 | 42 | 107 | 0.0 | 0.0 | 0.00 | 0.00 | 0.00 | 90 | 1016.5 |
| 20260503052314 | 42 | 107 | 0.0 | 0.0 | 0.00 | 0.00 | 0.00 | 90 | 1016.5 |
| 20260503052113 | 42 | 107 | 0.0 | 0.0 | 0.00 | 0.00 | 0.00 | 90 | 1016.5 |
| 20260503051914 | 42 | 107 | 0.0 | 0.0 | 0.00 | 0.00 | 0.00 | 90 | 1016.4 |
| 20260503051710 | 42 | 107 | 0.0 | 0.0 | 0.00 | 0.00 | 0.00 | 90 | 1016.4 |
| 20260503051509 | 42 | 107 | 0.0 | 0.0 | 0.00 | 0.00 | 0.00 | 90 | 1016.4 |
| 20260503051308 | 42 | 107 | 0.0 | 0.0 | 0.00 | 0.00 | 0.00 | 90 | 1016.4 |
| 20260503051107 | 42 | 107 | 0.0 | 0.0 | 0.00 | 0.00 | 0.00 | 90 | 1016.3 |
| 20260503050709 | 42 | 107 | 0.0 | 0.0 | 0.00 | 0.00 | 0.00 | 90 | 1016.3 |
| 20260503050505 | 42 | 107 | 0.0 | 0.0 | 0.00 | 0.00 | 0.00 | 90 | 1016.3 |
| 20260503050302 | 43 | 107 | 0.0 | 0.0 | 0.00 | 0.00 | 0.00 | 90 | 1016.2 |
| 20260503045902 | 43 | 107 | 0.0 | 0.0 | 0.00 | 0.00 | 0.00 | 90 | 1016.2 |
| 20260503045700 | 43 | 107 | 0.0 | 0.0 | 0.00 | 0.00 | 0.00 | 90 | 1016.2 |
| 20260503045500 | 43 | 107 | 0.0 | 0.0 | 0.00 | 0.00 | 0.00 | 90 | 1016.2 |
| 20260503045257 | 43 | 107 | 0.0 | 0.0 | 0.00 | 0.00 | 0.00 | 90 | 1016.2 |
| 20260503045059 | 43 | 107 | 0.0 | 0.0 | 0.00 | 0.00 | 0.00 | 90 | 1016.3 |
| 20260503044854 | 43 | 107 | 0.0 | 0.0 | 0.00 | 0.00 | 0.00 | 90 | 1016.3 |
| 20260503044655 | 43 | 107 | 0.0 | 0.0 | 0.00 | 0.00 | 0.00 | 90 | 1016.3 |
| 20260503044252 | 43 | 107 | 0.0 | 0.0 | 0.00 | 0.00 | 0.00 | 90 | 1016.3 |
| 20260503043848 | 43 | 107 | 0.0 | 0.0 | 0.00 | 0.00 | 0.00 | 90 | 1016.3 |
| 20260503043646 | 43 | 107 | 0.0 | 0.0 | 0.00 | 0.00 | 0.00 | 90 | 1016.3 |
| 20260503043445 | 44 | 107 | 0.0 | 0.0 | 0.00 | 0.00 | 0.00 | 90 | 1016.2 |
| 20260503043041 | 44 | 107 | 0.0 | 0.0 | 0.00 | 0.00 | 0.00 | 90 | 1016.2 |
| 20260503042839 | 44 | 107 | 0.0 | 0.0 | 0.00 | 0.00 | 0.00 | 90 | 1016.2 |
| 20260503042640 | 44 | 107 | 0.0 | 0.0 | 0.00 | 0.00 | 0.00 | 90 | 1016.1 |
| 20260503042438 | 44 | 107 | 0.0 | 0.0 | 0.00 | 0.00 | 0.00 | 90 | 1016.1 |
| 20260503042235 | 44 | 107 | 0.0 | 0.0 | 0.00 | 0.00 | 0.00 | 90 | 1015.9 |
| 20260503042035 | 44 | 107 | 0.0 | 0.0 | 0.00 | 0.00 | 0.00 | 90 | 1016.1 |
| 20260503041835 | 44 | 107 | 0.0 | 0.0 | 0.00 | 0.00 | 0.00 | 90 | 1016.1 |
| 20260503041633 | 44 | 107 | 0.0 | 0.0 | 0.00 | 0.00 | 0.00 | 90 | 1016.1 |
| 20260503041432 | 44 | 107 | 0.0 | 0.0 | 0.00 | 0.00 | 0.00 | 90 | 1016.1 |
| 20260503041233 | 44 | 107 | 0.0 | 0.0 | 0.00 | 0.00 | 0.00 | 90 | 1016.2 |
| 20260503041029 | 44 | 107 | 0.0 | 0.0 | 0.00 | 0.00 | 0.00 | 90 | 1016.1 |
| 20260503040627 | 44 | 107 | 0.0 | 0.0 | 0.00 | 0.00 | 0.00 | 90 | 1016.2 |
| 20260503040427 | 44 | 107 | 0.0 | 0.0 | 0.00 | 0.00 | 0.00 | 90 | 1016.1 |
| 20260503040228 | 44 | 107 | 0.0 | 0.0 | 0.00 | 0.00 | 0.00 | 90 | 1016.1 |
| 20260503040025 | 45 | 107 | 0.0 | 0.0 | 0.00 | 0.00 | 0.00 | 90 | 1016.1 |
| 20260503035823 | 45 | 107 | 0.0 | 0.0 | 0.00 | 0.00 | 0.00 | 90 | 1015.9 |
| 20260503035623 | 45 | 107 | 0.0 | 0.0 | 0.00 | 0.00 | 0.00 | 90 | 1015.9 |
| 20260503035423 | 45 | 107 | 0.0 | 0.0 | 0.00 | 0.00 | 0.00 | 90 | 1015.8 |
| 20260503035221 | 45 | 107 | 0.0 | 0.0 | 0.00 | 0.00 | 0.00 | 90 | 1015.8 |
| 20260503035022 | 45 | 107 | 0.0 | 0.0 | 0.00 | 0.00 | 0.00 | 90 | 1015.9 |
| 20260503034821 | 45 | 107 | 0.0 | 0.0 | 0.00 | 0.00 | 0.00 | 90 | 1015.8 |
| 20260503034619 | 45 | 107 | 0.0 | 0.0 | 0.00 | 0.00 | 0.00 | 90 | 1015.8 |
| 20260503034420 | 45 | 107 | 0.0 | 0.0 | 0.00 | 0.00 | 0.00 | 90 | 1015.8 |
| 20260503033816 | 45 | 107 | 0.0 | 0.0 | 0.00 | 0.00 | 0.00 | 90 | 1015.7 |
| 20260503033613 | 46 | 107 | 0.0 | 0.0 | 0.00 | 0.00 | 0.00 | 90 | 1015.8 |
| 20260503033411 | 46 | 107 | 0.0 | 0.0 | 0.00 | 0.00 | 0.00 | 90 | 1015.8 |
| 20260503033212 | 46 | 107 | 0.0 | 0.0 | 0.00 | 0.00 | 0.00 | 90 | 1015.7 |
| 20260503033009 | 46 | 107 | 0.0 | 0.0 | 0.00 | 0.00 | 0.00 | 90 | 1015.8 |
| 20260503032606 | 46 | 107 | 0.0 | 0.0 | 0.00 | 0.00 | 0.00 | 90 | 1015.8 |
| 20260503032404 | 46 | 107 | 0.0 | 0.0 | 0.00 | 0.00 | 0.00 | 90 | 1015.7 |
| 20260503032205 | 46 | 107 | 0.0 | 0.0 | 0.00 | 0.00 | 0.00 | 90 | 1015.8 |
| 20260503032002 | 46 | 107 | 0.0 | 0.0 | 0.00 | 0.00 | 0.00 | 90 | 1015.8 |
| 20260503031803 | 46 | 107 | 0.0 | 0.0 | 0.00 | 0.00 | 0.00 | 90 | 1015.8 |
| 20260503031602 | 46 | 107 | 0.0 | 0.0 | 0.00 | 0.00 | 0.00 | 90 | 1015.7 |
| 20260503031401 | 46 | 107 | 0.0 | 0.0 | 0.00 | 0.00 | 0.00 | 90 | 1015.8 |
| 20260503031202 | 46 | 107 | 0.0 | 0.0 | 0.00 | 0.00 | 0.00 | 90 | 1015.7 |
| 20260503031003 | 46 | 107 | 0.0 | 0.0 | 0.00 | 0.00 | 0.00 | 90 | 1015.6 |
| 20260503030800 | 46 | 107 | 0.0 | 0.0 | 0.00 | 0.00 | 0.00 | 90 | 1015.7 |
| 20260503030358 | 46 | 107 | 0.0 | 0.0 | 0.00 | 0.00 | 0.00 | 90 | 1015.5 |
| 20260503030157 | 46 | 107 | 0.0 | 0.0 | 0.00 | 0.00 | 0.00 | 90 | 1015.5 |
| 20260503025958 | 46 | 107 | 0.0 | 0.0 | 0.00 | 0.00 | 0.00 | 90 | 1015.4 |
| 20260503025758 | 47 | 107 | 0.0 | 0.0 | 0.00 | 0.00 | 0.00 | 90 | 1015.5 |
| 20260503025553 | 47 | 107 | 0.0 | 0.0 | 0.00 | 0.00 | 0.00 | 90 | 1015.5 |
| 20260503025354 | 47 | 107 | 0.0 | 0.0 | 0.00 | 0.00 | 0.00 | 90 | 1015.4 |
| 20260503025152 | 47 | 107 | 0.0 | 0.0 | 0.00 | 0.00 | 0.00 | 90 | 1015.4 |
| 20260503024949 | 47 | 107 | 0.0 | 0.0 | 0.00 | 0.00 | 0.00 | 90 | 1015.4 |
| 20260503024547 | 47 | 107 | 0.0 | 0.0 | 0.00 | 0.00 | 0.00 | 90 | 1015.4 |
| 20260503024143 | 47 | 107 | 0.0 | 0.0 | 0.00 | 0.00 | 0.00 | 90 | 1015.4 |
| 20260503023944 | 47 | 107 | 0.0 | 0.0 | 0.00 | 0.00 | 0.00 | 90 | 1015.4 |
| 20260503023743 | 47 | 107 | 0.0 | 0.0 | 0.00 | 0.00 | 0.00 | 90 | 1015.3 |
| 20260503022937 | 47 | 107 | 0.0 | 0.0 | 0.00 | 0.00 | 0.00 | 90 | 1015.2 |
| 20260503022736 | 47 | 107 | 0.0 | 0.0 | 0.00 | 0.00 | 0.00 | 90 | 1015.2 |
| 20260503022535 | 48 | 107 | 0.0 | 0.0 | 0.00 | 0.00 | 0.00 | 89 | 1015.2 |
| 20260503022334 | 48 | 107 | 0.0 | 0.0 | 0.00 | 0.00 | 0.00 | 89 | 1015.2 |
| 20260503022133 | 48 | 107 | 0.0 | 0.0 | 0.00 | 0.00 | 0.00 | 89 | 1015.1 |
| 20260503021934 | 48 | 107 | 0.0 | 0.0 | 0.00 | 0.00 | 0.00 | 89 | 1015.1 |
| 20260503021731 | 48 | 107 | 0.0 | 0.0 | 0.00 | 0.00 | 0.00 | 89 | 1015.1 |
| 20260503021529 | 48 | 107 | 0.0 | 0.0 | 0.00 | 0.00 | 0.00 | 89 | 1015.0 |
| 20260503021329 | 48 | 107 | 0.0 | 0.0 | 0.00 | 0.00 | 0.00 | 89 | 1015.1 |
| 20260503021130 | 48 | 107 | 0.0 | 0.0 | 0.00 | 0.00 | 0.00 | 89 | 1015.1 |
| 20260503020728 | 48 | 107 | 0.0 | 0.0 | 0.00 | 0.00 | 0.00 | 89 | 1015.1 |
| 20260503020528 | 48 | 107 | 0.0 | 0.0 | 0.00 | 0.00 | 0.00 | 89 | 1015.1 |
| 20260503020128 | 49 | 107 | 0.0 | 0.0 | 0.00 | 0.00 | 0.00 | 89 | 1015.1 |
| 20260503015929 | 49 | 107 | 0.0 | 0.0 | 0.00 | 0.00 | 0.00 | 89 | 1015.1 |
| 20260503015725 | 49 | 107 | 0.0 | 0.0 | 0.00 | 0.00 | 0.00 | 89 | 1015.0 |
| 20260503015525 | 49 | 107 | 0.0 | 0.0 | 0.00 | 0.00 | 0.00 | 89 | 1015.0 |
| 20260503014923 | 49 | 107 | 0.0 | 0.0 | 0.00 | 0.00 | 0.00 | 89 | 1014.9 |
| 20260503014724 | 49 | 107 | 0.0 | 0.0 | 0.00 | 0.00 | 0.00 | 89 | 1014.9 |
| 20260503014524 | 49 | 107 | 0.0 | 0.0 | 0.00 | 0.00 | 0.00 | 89 | 1014.9 |
| 20260503014323 | 49 | 107 | 0.0 | 0.0 | 0.00 | 0.00 | 0.00 | 88 | 1014.9 |
| 20260503014124 | 49 | 107 | 0.0 | 0.0 | 0.00 | 0.00 | 0.00 | 88 | 1014.9 |
| 20260503013721 | 49 | 107 | 0.0 | 1.0 | 0.00 | 0.00 | 0.00 | 88 | 1014.7 |
| 20260503013520 | 49 | 107 | 0.0 | 1.0 | 0.00 | 0.00 | 0.00 | 88 | 1014.7 |
| 20260503013317 | 50 | 107 | 0.0 | 1.0 | 0.00 | 0.00 | 0.00 | 88 | 1014.6 |
| 20260503013115 | 50 | 107 | 0.0 | 1.0 | 0.00 | 0.00 | 0.00 | 88 | 1014.6 |
| 20260503012915 | 50 | 107 | 0.0 | 1.0 | 0.00 | 0.00 | 0.00 | 88 | 1014.4 |
| 20260503012714 | 50 | 107 | 0.0 | 1.0 | 0.00 | 0.00 | 0.00 | 88 | 1014.3 |
| 20260503012512 | 50 | 107 | 0.0 | 1.0 | 0.00 | 0.00 | 0.00 | 88 | 1014.4 |
| 20260503012108 | 50 | 107 | 0.0 | 0.0 | 0.00 | 0.00 | 0.00 | 88 | 1014.5 |
| 20260503011907 | 51 | 107 | 0.0 | 0.0 | 0.00 | 0.00 | 0.00 | 88 | 1014.4 |
| 20260503011506 | 51 | 107 | 0.0 | 0.0 | 0.00 | 0.00 | 0.00 | 88 | 1014.5 |
| 20260503011305 | 51 | 107 | 0.0 | 0.0 | 0.00 | 0.00 | 0.00 | 87 | 1014.4 |
| 20260503011104 | 51 | 107 | 0.0 | 0.0 | 0.00 | 0.00 | 0.00 | 87 | 1014.4 |
| 20260503010902 | 51 | 107 | 0.0 | 0.0 | 0.00 | 0.00 | 0.00 | 87 | 1014.4 |
| 20260503010702 | 51 | 107 | 0.0 | 0.0 | 0.00 | 0.00 | 0.00 | 87 | 1014.4 |
| 20260503010054 | 51 | 107 | 0.0 | 0.0 | 0.00 | 0.00 | 0.00 | 87 | 1014.4 |
| 20260503005853 | 51 | 107 | 0.0 | 0.0 | 0.00 | 0.00 | 0.00 | 87 | 1014.3 |
| 20260503005654 | 51 | 107 | 0.0 | 0.0 | 0.00 | 0.00 | 0.00 | 87 | 1014.3 |
| 20260503005452 | 51 | 107 | 0.0 | 0.0 | 0.00 | 0.00 | 0.00 | 87 | 1014.3 |
| 20260503005250 | 52 | 107 | 0.0 | 0.0 | 0.00 | 0.00 | 0.00 | 86 | 1014.3 |
| 20260503005047 | 52 | 107 | 0.0 | 0.0 | 0.00 | 0.00 | 0.00 | 87 | 1014.3 |
| 20260503004845 | 52 | 107 | 0.0 | 0.0 | 0.00 | 0.00 | 0.00 | 86 | 1014.3 |
| 20260503004443 | 52 | 107 | 0.0 | 0.0 | 0.00 | 0.00 | 0.00 | 86 | 1014.2 |
| 20260503004243 | 52 | 107 | 0.0 | 0.0 | 0.00 | 0.00 | 0.00 | 86 | 1014.2 |
| 20260503004043 | 52 | 107 | 0.0 | 0.0 | 0.00 | 0.00 | 0.00 | 86 | 1014.2 |
| 20260503003238 | 52 | 107 | 0.0 | 0.0 | 0.00 | 0.00 | 0.00 | 85 | 1014.1 |
| 20260503003035 | 53 | 107 | 0.0 | 0.0 | 0.00 | 0.00 | 0.00 | 85 | 1014.1 |
| 20260503002634 | 53 | 107 | 0.0 | 0.0 | 0.00 | 0.00 | 0.00 | 84 | 1014.1 |
| 20260503002431 | 53 | 107 | 0.0 | 0.0 | 0.00 | 0.00 | 0.00 | 84 | 1014.1 |
| 20260503002229 | 53 | 107 | 0.0 | 0.0 | 0.00 | 0.00 | 0.00 | 84 | 1014.0 |
| 20260503002027 | 53 | 107 | 0.0 | 0.0 | 0.00 | 0.00 | 0.00 | 84 | 1014.0 |
| 20260503001825 | 53 | 107 | 0.0 | 0.0 | 0.00 | 0.00 | 0.00 | 83 | 1014.0 |
| 20260503001625 | 53 | 107 | 0.0 | 0.0 | 0.00 | 0.00 | 0.00 | 83 | 1014.0 |
| 20260503001225 | 53 | 107 | 0.0 | 0.0 | 0.00 | 0.00 | 0.00 | 83 | 1013.9 |
| 20260503001025 | 53 | 107 | 0.0 | 0.0 | 0.00 | 0.00 | 0.00 | 83 | 1013.8 |
| 20260503000825 | 54 | 107 | 0.0 | 0.0 | 0.00 | 0.00 | 0.00 | 83 | 1013.8 |
| 20260503000425 | 54 | 107 | 0.0 | 0.0 | 0.00 | 0.00 | 0.00 | 83 | 1013.7 |
| 20260502235826 | 54 | 107 | 0.0 | 0.0 | 0.00 | 0.00 | 0.00 | 82 | 1013.6 |
| 20260502235623 | 54 | 107 | 0.0 | 0.0 | 0.00 | 0.00 | 0.00 | 83 | 1013.6 |
| 20260502235422 | 54 | 107 | 0.0 | 0.0 | 0.00 | 0.00 | 0.00 | 82 | 1013.5 |
| 20260502235020 | 54 | 107 | 0.0 | 0.0 | 0.00 | 0.00 | 0.00 | 82 | 1013.4 |
| 20260502234820 | 54 | 107 | 0.0 | 0.0 | 0.00 | 0.00 | 0.00 | 82 | 1013.4 |
| 20260502234620 | 54 | 107 | 0.0 | 0.0 | 0.00 | 0.00 | 0.00 | 82 | 1013.4 |
| 20260502234418 | 54 | 107 | 0.0 | 0.0 | 0.00 | 0.00 | 0.00 | 82 | 1013.3 |
| 20260502234215 | 54 | 107 | 0.0 | 0.0 | 0.00 | 0.00 | 0.00 | 82 | 1013.3 |
| 20260502234016 | 55 | 107 | 0.0 | 0.0 | 0.00 | 0.00 | 0.00 | 82 | 1013.2 |
| 20260502233614 | 55 | 107 | 0.0 | 0.0 | 0.00 | 0.00 | 0.00 | 81 | 1013.1 |
| 20260502233416 | 55 | 107 | 0.0 | 0.0 | 0.00 | 0.00 | 0.00 | 81 | 1013.1 |
| 20260502233212 | 55 | 107 | 0.0 | 0.0 | 0.00 | 0.00 | 0.00 | 81 | 1013.2 |
| 20260502233010 | 55 | 107 | 0.0 | 0.0 | 0.00 | 0.00 | 0.00 | 80 | 1013.1 |
| 20260502232809 | 55 | 107 | 0.0 | 0.0 | 0.00 | 0.00 | 0.00 | 80 | 1013.0 |
| 20260502232607 | 55 | 107 | 0.0 | 0.0 | 0.00 | 0.00 | 0.00 | 80 | 1013.0 |
| 20260502232408 | 55 | 107 | 0.0 | 0.0 | 0.00 | 0.00 | 0.00 | 80 | 1013.0 |
| 20260502232208 | 55 | 107 | 0.0 | 0.0 | 0.00 | 0.00 | 0.00 | 80 | 1013.0 |
| 20260502232006 | 55 | 107 | 0.0 | 0.0 | 0.00 | 0.00 | 0.00 | 79 | 1012.9 |
| 20260502231805 | 56 | 107 | 0.0 | 0.0 | 0.00 | 0.00 | 0.00 | 79 | 1013.0 |
| 20260502231603 | 56 | 107 | 0.0 | 0.0 | 0.00 | 0.00 | 0.00 | 78 | 1013.0 |
| 20260502231401 | 56 | 182 | 0.0 | 0.0 | 0.00 | 0.00 | 0.00 | 78 | 1012.8 |
| 20260502231200 | 56 | 180 | 0.0 | 0.0 | 0.00 | 0.00 | 0.00 | 78 | 1012.8 |
| 20260502231000 | 56 | 174 | 0.0 | 0.0 | 0.00 | 0.00 | 0.00 | 78 | 1012.9 |
| 20260502230600 | 56 | 271 | 0.0 | 0.0 | 0.00 | 0.00 | 0.00 | 77 | 1013.0 |
| 20260502230400 | 56 | 271 | 0.0 | 0.0 | 0.00 | 0.00 | 0.00 | 77 | 1012.9 |
| 20260502230201 | 56 | 271 | 0.0 | 0.0 | 0.00 | 0.00 | 0.00 | 77 | 1012.9 |
| 20260502225959 | 57 | 271 | 0.0 | 0.0 | 0.00 | 0.00 | 0.00 | 77 | 1012.9 |
| 20260502225756 | 57 | 271 | 0.0 | 0.0 | 0.00 | 0.00 | 0.00 | 76 | 1012.9 |
| 20260502225555 | 57 | 271 | 0.0 | 0.0 | 0.00 | 0.00 | 0.00 | 76 | 1012.9 |
| 20260502225353 | 57 | 271 | 0.0 | 0.0 | 0.00 | 0.00 | 0.00 | 75 | 1012.9 |
| 20260502225151 | 57 | 271 | 0.0 | 0.0 | 0.00 | 0.00 | 0.00 | 74 | 1012.9 |
| 20260502224949 | 57 | 271 | 0.0 | 0.0 | 0.00 | 0.00 | 0.00 | 74 | 1012.8 |
| 20260502224748 | 57 | 271 | 0.0 | 0.0 | 0.00 | 0.00 | 0.00 | 74 | 1012.8 |
| 20260502224550 | 57 | 271 | 0.0 | 0.0 | 0.00 | 0.00 | 0.00 | 74 | 1012.8 |
| 20260502224348 | 57 | 271 | 0.0 | 0.0 | 0.00 | 0.00 | 0.00 | 74 | 1012.8 |
| 20260502224147 | 57 | 271 | 0.0 | 0.0 | 0.00 | 0.00 | 0.00 | 75 | 1012.8 |
| 20260502223945 | 57 | 271 | 0.0 | 0.0 | 0.00 | 0.00 | 0.00 | 74 | 1012.8 |
| 20260502223541 | 57 | 271 | 0.0 | 0.0 | 0.00 | 0.00 | 0.00 | 73 | 1012.8 |
| 20260502223341 | 57 | 271 | 0.0 | 0.0 | 0.00 | 0.00 | 0.00 | 72 | 1012.8 |
| 20260502223140 | 57 | 271 | 0.0 | 0.0 | 0.00 | 0.00 | 0.00 | 71 | 1012.7 |
| 20260502222936 | 57 | 271 | 0.0 | 0.0 | 0.00 | 0.00 | 0.00 | 72 | 1012.6 |
| 20260502222736 | 57 | 271 | 0.0 | 0.0 | 0.00 | 0.00 | 0.00 | 71 | 1012.7 |
| 20260502222533 | 57 | 271 | 0.0 | 1.0 | 0.00 | 0.00 | 0.00 | 71 | 1012.7 |